Retour au catalogue

FENGYUN 1C DEB

ActifSSO
NORAD 30170·DEBRIS·🇨🇳 China

Lancé May 10, 1999 depuis Taiyuan Satellite Launch Center

Loading…

Prochains Passages (prochaines 24 heures)

TLE

FraisSource: Space-Track

Époque: Sep 14, 2026, 10:22 UTC

1 30170U 99025UB  26257.43235229  .00000294  00000-0  22086-3 0  9994
2 30170  98.8777 241.0019 0077201 229.4734 284.1398 14.00629221  2705

Suivez FENGYUN 1C DEB en temps réel avec AllMySat

Download on the App Store